EJU53PB EHAM-LEZL

Flight info

Callsign EJU53PB
Flight time N/A
Altitude 35000
Route WOODY N872 CIV DCT KOVIN DCT DUCRA DCT RESMI DCT DEKOD DCT DISAK DCT ARKIP DCT ARNAV DCT LMG DCT UVELI DCT OSMOB DCT ARVID DCT PPN DCT NOLSA DCT ALEPO DCT VASUM DCT BANEV DCT BAN DCT GOTOR DCT KAMPO DCT MONTO DCT MOLIN DCT HIJ
Aircraft A320/M-SDE3FGHIRWY/LB1

Departure

Time 2026-04-28 18:49
Airport Amsterdam Airport Schiphol (EHAM)

Arrival

Time N/A
Airport Seville Airport (LEZL)
Time Latitude Longitude Altitude Speed Heading
2026-04-28 18:10 52.31069 4.75569 -1 ft 0 kts 148°
2026-04-28 18:12 52.31070 4.75569 -1 ft 0 kts 146°
2026-04-28 18:33 52.31070 4.75568 -1 ft 0 kts 146°
2026-04-28 18:33 52.31077 4.75561 -28 ft 4 kts 148°
2026-04-28 18:34 52.31100 4.75538 -1 ft 4 kts 140°
2026-04-28 18:34 52.31109 4.75519 -1 ft 2 kts 65°
2026-04-28 18:34 52.31097 4.75484 -1 ft 4 kts 55°
2026-04-28 18:34 52.31092 4.75471 -1 ft 0 kts 58°
2026-04-28 18:36 52.31097 4.75484 -1 ft 1 kts 57°
2026-04-28 18:36 52.31110 4.75487 -1 ft 3 kts 355°
2026-04-28 18:37 52.31164 4.75468 -1 ft 13 kts 349°
2026-04-28 18:37 52.31270 4.75456 -1 ft 17 kts 358°
2026-04-28 18:37 52.31372 4.75447 -1 ft 14 kts 357°
2026-04-28 18:37 52.31468 4.75439 -1 ft 13 kts 353°
2026-04-28 18:38 52.31508 4.75328 -1 ft 12 kts 269°
2026-04-28 18:38 52.31503 4.75188 -1 ft 13 kts 267°
2026-04-28 18:38 52.31498 4.75054 -1 ft 11 kts 266°
2026-04-28 18:38 52.31494 4.74931 -1 ft 11 kts 266°
2026-04-28 18:39 52.31490 4.74805 -1 ft 12 kts 267°
2026-04-28 18:39 52.31486 4.74662 -1 ft 13 kts 267°
2026-04-28 18:39 52.31481 4.74528 -1 ft 17 kts 266°
2026-04-28 18:39 52.31478 4.74422 -1 ft 20 kts 266°
2026-04-28 18:40 52.31510 4.74294 -1 ft 12 kts 355°
2026-04-28 18:40 52.31605 4.74305 -1 ft 15 kts
2026-04-28 18:40 52.31718 4.74329 -1 ft 16 kts 358°
2026-04-28 18:40 52.31837 4.74325 -1 ft 18 kts
2026-04-28 18:41 52.31960 4.74336 -1 ft 16 kts
2026-04-28 18:41 52.32030 4.74222 -1 ft 15 kts 275°
2026-04-28 18:41 52.32037 4.74054 -2 ft 15 kts 272°
2026-04-28 18:41 52.32040 4.73893 -2 ft 13 kts 274°
2026-04-28 18:42 52.32047 4.73757 -1 ft 11 kts 273°
2026-04-28 18:42 52.32051 4.73635 -1 ft 10 kts 274°
2026-04-28 18:42 52.32057 4.73503 -1 ft 13 kts 274°
2026-04-28 18:42 52.32091 4.73352 -1 ft 15 kts 311°
2026-04-28 18:43 52.32177 4.73232 -1 ft 17 kts 319°
2026-04-28 18:43 52.32272 4.73101 -1 ft 19 kts 321°
2026-04-28 18:43 52.32373 4.72957 -1 ft 20 kts 319°
2026-04-28 18:43 52.32477 4.72815 -1 ft 19 kts 319°
2026-04-28 18:44 52.32574 4.72675 -1 ft 18 kts 320°
2026-04-28 18:44 52.32717 4.72445 -1 ft 16 kts 313°
2026-04-28 18:44 52.32787 4.72320 -1 ft 14 kts 311°
2026-04-28 18:45 52.32851 4.72203 -1 ft 16 kts 311°
2026-04-28 18:45 52.32946 4.72029 -1 ft 22 kts 311°
2026-04-28 18:45 52.33017 4.71890 -1 ft 13 kts 309°
2026-04-28 18:45 52.33076 4.71785 -1 ft 13 kts 312°
2026-04-28 18:46 52.33145 4.71660 -1 ft 12 kts 308°
2026-04-28 18:46 52.33140 4.71532 -1 ft 11 kts 250°
2026-04-28 18:46 52.33136 4.71424 -1 ft 9 kts 292°
2026-04-28 18:46 52.33172 4.71351 -1 ft 8 kts 313°
2026-04-28 18:47 52.33205 4.71290 -1 ft 9 kts 311°
2026-04-28 18:47 52.33265 4.71180 -1 ft 14 kts 310°
2026-04-28 18:47 52.33324 4.71066 -2 ft 13 kts 311°
2026-04-28 18:47 52.33373 4.70976 -2 ft 8 kts 301°
2026-04-28 18:48 52.33403 4.70939 -2 ft 6 kts 357°
2026-04-28 18:48 52.33562 4.70957 -1 ft 53 kts
2026-04-28 18:48 52.34161 4.71010 -4 ft 117 kts
2026-04-28 18:48 52.35137 4.71105 95 ft 156 kts
2026-04-28 18:49 52.36203 4.71210 812 ft 153 kts 10°
2026-04-28 18:49 52.36905 4.71287 1286 ft 153 kts
2026-04-28 18:49 52.38446 4.71446 1752 ft 179 kts 10°
2026-04-28 18:49 52.39740 4.71618 2119 ft 195 kts 13°
2026-04-28 18:50 52.41041 4.72400 2493 ft 204 kts 43°
2026-04-28 18:50 52.41871 4.74230 3315 ft 203 kts 69°
2026-04-28 18:50 52.42078 4.76516 4071 ft 207 kts 95°
2026-04-28 18:50 52.41615 4.78726 4817 ft 215 kts 120°
2026-04-28 18:51 52.40487 4.80439 5561 ft 226 kts 148°
2026-04-28 18:51 52.39005 4.81424 6268 ft 234 kts 161°
2026-04-28 18:51 52.37364 4.81823 6958 ft 241 kts 167°
2026-04-28 18:51 52.35696 4.82187 7738 ft 242 kts 167°
2026-04-28 18:52 52.34016 4.82549 8476 ft 245 kts 167°
2026-04-28 18:52 52.32281 4.82964 8937 ft 263 kts 166°
2026-04-28 18:52 52.30411 4.83467 9366 ft 279 kts 166°
2026-04-28 18:52 52.28477 4.84004 10102 ft 284 kts 167°
2026-04-28 18:53 52.26499 4.84558 10633 ft 297 kts 167°
2026-04-28 18:53 52.24345 4.84786 10833 ft 324 kts 178°
2026-04-28 18:53 52.22043 4.84740 11283 ft 335 kts 177°
2026-04-28 18:53 52.19718 4.84687 11941 ft 340 kts 178°
2026-04-28 18:54 52.17313 4.84631 12651 ft 344 kts 177°
2026-04-28 18:54 52.14909 4.84576 13124 ft 348 kts 177°
2026-04-28 18:54 52.12489 4.84523 13242 ft 348 kts 176°
2026-04-28 18:54 52.10066 4.84472 13262 ft 348 kts 176°
2026-04-28 18:55 52.07651 4.84421 13254 ft 347 kts 178°
2026-04-28 18:55 52.06049 4.84386 13252 ft 347 kts 179°
2026-04-28 18:55 52.02809 4.84030 13610 ft 354 kts 187°
2026-04-28 18:55 52.00453 4.82947 14299 ft 359 kts 198°
2026-04-28 18:56 51.98162 4.81243 14863 ft 365 kts 202°
2026-04-28 18:56 51.95865 4.79453 15461 ft 368 kts 203°
2026-04-28 18:56 51.93557 4.77644 16136 ft 368 kts 202°
2026-04-28 18:56 51.91241 4.75828 16751 ft 371 kts 202°